This is the latest recevied weather packets stored in our database for station/object DL9BGG-13. If no packets are shown the sender has not sent any weather packets the latest 1 day(s).
| Time | Temp. | Humidity | Pressure | Rain* | Wind** | Luminosity | Snow |
|---|---|---|---|---|---|---|---|
| 1777981473 | 12.78° C | 69% | 1057.3 hPa | 0 mm | 2.68 m/s, 0° | - | - |
| 1777981392 | 12.78° C | 69% | 1057.3 hPa | 0 mm | 2.68 m/s, 337° | - | - |
| 1777981319 | 12.78° C | 68% | 1057.3 hPa | 0 mm | 4.47 m/s, 45° | - | - |
| 1777981238 | 12.78° C | 68% | 1057.3 hPa | 0 mm | 2.68 m/s, 0° | - | - |
| 1777981173 | 12.78° C | 68% | 1057.3 hPa | 0 mm | 4.02 m/s, 22° | - | - |
| 1777981108 | 12.78° C | 69% | 1057.3 hPa | 0 mm | 3.13 m/s, 22° | - | - |
| 1777981034 | 12.78° C | 69% | 1057.3 hPa | 0 mm | 2.24 m/s, 45° | - | - |
| 1777980961 | 12.78° C | 69% | 1057.3 hPa | 0 mm | 5.36 m/s, 45° | - | - |
| 1777980880 | 12.78° C | 71% | 1057.3 hPa | 0 mm | 1.79 m/s, 22° | - | - |
| 1777980801 | 12.78° C | 71% | 1057.3 hPa | 0 mm | 2.68 m/s, 45° | - | - |
| 1777980734 | 12.78° C | 71% | 1057.3 hPa | 0 mm | 2.68 m/s, 22° | - | - |
| 1777980669 | 12.78° C | 71% | 1057.3 hPa | 0 mm | 3.13 m/s, 67° | - | - |
| 1777980603 | 12.22° C | 70% | 1057.3 hPa | 0 mm | 0.89 m/s, 22° | - | - |
| 1777980515 | 12.22° C | 70% | 1057.3 hPa | 0 mm | 2.68 m/s, 45° | - | - |
| 1777980450 | 12.22° C | 70% | 1057.3 hPa | 0 mm | 2.24 m/s, 45° | - | - |
| 1777980384 | 12.22° C | 69% | 1057.3 hPa | 0 mm | 4.02 m/s, 67° | - | - |
| 1777980311 | 12.22° C | 71% | 1057.3 hPa | 0 mm | 6.71 m/s, 67° | - | - |
| 1777980245 | 12.22° C | 70% | 1057.3 hPa | 0 mm | 1.34 m/s, 45° | - | - |
| 1777980172 | 12.22° C | 71% | 1057.3 hPa | 0 mm | 2.68 m/s, 112° | - | - |
| 1777980100 | 12.22° C | 71% | 1057.3 hPa | 0 mm | 2.24 m/s, 0° | - | - |
| 1777980027 | 12.22° C | 71% | 1057.3 hPa | 0 mm | 3.58 m/s, 22° | - | - |
| 1777979952 | 12.22° C | 71% | 1057.3 hPa | 0 mm | 1.79 m/s, 0° | - | - |
| 1777979879 | 12.22° C | 71% | 1057.4 hPa | 0 mm | 1.79 m/s, 90° | - | - |
| 1777979805 | 12.22° C | 71% | 1057.3 hPa | 0 mm | 2.24 m/s, 0° | - | - |
| 1777979733 | 12.22° C | 71% | 1057.4 hPa | 0 mm | 3.13 m/s, 90° | - | - |
* Rain latest hour (hover to see other rain measurements)
** Current wind speed in m/s (hover to see current wind gust speed)